• In Spain
  • List of Countries
  • For 7 days
  • Water Temperature
  • Satellite Maps
  • Weather Map
  • Weather Widgets
  • user-avatar
    Login

    Hourly Weather Maloe Loshakovo

    Today, 28 May, Monday

    Time Temperature Precipitation Wind Pressure Humidity
    00:00 +9°C° 0 mm 2 mps 757 mmHg 48%
    01:00 +8°C° 0 mm 2 mps 758 mmHg 51%
    02:00 +7°C° 0 mm 2 mps 758 mmHg 53%
    03:00 +7°C° 0 mm 2 mps 759 mmHg 53%
    04:00 +8°C° 0 mm 2 mps 759 mmHg 54%
    05:00 +8°C° 0 mm 2 mps 760 mmHg 54%
    06:00 +10°C° 0 mm 2 mps 760 mmHg 48%
    07:00 +13°C° 0 mm 2 mps 761 mmHg 42%
    08:00 +15°C° 0 mm 2 mps 761 mmHg 36%
    09:00 +16°C° 0 mm 2 mps 761 mmHg 33%
    10:00 +17°C° 0 mm 2 mps 761 mmHg 30%
    11:00 +18°C° 0 mm 2 mps 761 mmHg 28%
    12:00 +19°C° 0 mm 2 mps 761 mmHg 27%
    13:00 +20°C° 0 mm 2 mps 761 mmHg 27%
    14:00 +22°C° 0 mm 1 mps 760 mmHg 27%
    15:00 +21°C° 0 mm 1 mps 760 mmHg 28%
    16:00 +21°C° 0 mm 1 mps 760 mmHg 30%
    17:00 +21°C° 0 mm 1 mps 759 mmHg 32%
    18:00 +19°C° 0 mm 1 mps 759 mmHg 39%
    19:00 +16°C° 0 mm 1 mps 759 mmHg 46%
    20:00 +14°C° 0 mm 1 mps 759 mmHg 53%
    21:00 +13°C° 0 mm 1 mps 759 mmHg 54%
    22:00 +12°C° 0 mm 1 mps 759 mmHg 55%
    23:00 +11°C° 0 mm 1 mps 760 mmHg 55%

    Tomorrow, 29 May, Tuesday

    Time Temperature Precipitation Wind Pressure Humidity
    00:00 +11°C° 0 mm 1 mps 760 mmHg 57%
    01:00 +10°C° 0 mm 1 mps 760 mmHg 59%
    02:00 +9°C° 0 mm 2 mps 760 mmHg 60%
    03:00 +9°C° 0 mm 2 mps 760 mmHg 61%
    04:00 +10°C° 0 mm 2 mps 759 mmHg 61%
    05:00 +12°C° 0 mm 2 mps 759 mmHg 62%
    06:00 +14°C° 0 mm 2 mps 759 mmHg 56%
    07:00 +16°C° 0 mm 3 mps 758 mmHg 50%
    08:00 +18°C° 0 mm 3 mps 758 mmHg 45%
    09:00 +20°C° 0 mm 3 mps 758 mmHg 41%
    10:00 +21°C° 0 mm 3 mps 757 mmHg 37%
    11:00 +22°C° 0 mm 3 mps 756 mmHg 33%
    12:00 +24°C° 0 mm 3 mps 756 mmHg 33%
    13:00 +25°C° 0 mm 4 mps 755 mmHg 33%
    14:00 +25°C° 0 mm 4 mps 754 mmHg 33%
    15:00 +25°C° 0 mm 4 mps 753 mmHg 37%
    16:00 +25°C° 0 mm 4 mps 752 mmHg 41%
    17:00 +25°C° 0 mm 4 mps 752 mmHg 44%
    18:00 +22°C° 0 mm 3 mps 751 mmHg 54%
    19:00 +20°C° 0 mm 3 mps 751 mmHg 64%
    20:00 +18°C° 0 mm 2 mps 750 mmHg 73%
    21:00 +17°C° 0 mm 2 mps 750 mmHg 75%
    22:00 +17°C° 0 mm 2 mps 750 mmHg 77%
    23:00 +16°C° 0 mm 3 mps 749 mmHg 79%

    Day after tomorrow, 30 May, Wednesday

    Time Temperature Precipitation Wind Pressure Humidity
    00:00 +14°C° 0 mm 3 mps 749 mmHg 80%
    01:00 +14°C° 0 mm 3 mps 749 mmHg 80%
    02:00 +13°C° 0 mm 3 mps 748 mmHg 81%
    03:00 +13°C° 0 mm 3 mps 748 mmHg 76%
    04:00 +14°C° 0 mm 4 mps 747 mmHg 72%
    05:00 +14°C° 0 mm 4 mps 747 mmHg 68%
    06:00 +17°C° 0 mm 4 mps 746 mmHg 61%
    07:00 +17°C° 0 mm 5 mps 746 mmHg 55%
    08:00 +20°C° 0 mm 5 mps 745 mmHg 49%
    09:00 +21°C° 0 mm 6 mps 745 mmHg 45%
    10:00 +23°C° 0 mm 6 mps 744 mmHg 42%
    11:00 +24°C° 0 mm 7 mps 744 mmHg 39%
    12:00 +26°C° 0 mm 7 mps 744 mmHg 38%
    13:00 +26°C° 0 mm 7 mps 743 mmHg 37%
    14:00 +26°C° 0 mm 7 mps 743 mmHg 35%
    15:00 +24°C° 0 mm 6 mps 743 mmHg 37%
    16:00 +23°C° 0 mm 5 mps 743 mmHg 38%
    17:00 +21°C° 0 mm 5 mps 743 mmHg 40%
    18:00 +19°C° 0 mm 4 mps 743 mmHg 44%
    19:00 +17°C° 0 mm 4 mps 744 mmHg 48%
    20:00 +13°C° 0 mm 3 mps 744 mmHg 52%
    21:00 +12°C° 0 mm 3 mps 745 mmHg 56%
    22:00 +11°C° 0 mm 3 mps 745 mmHg 60%
    23:00 +10°C° 0 mm 2 mps 746 mmHg 64%

    31 May, Thursday

    Time Temperature Precipitation Wind Pressure Humidity
    00:00 +9°C° 0 mm 2 mps 746 mmHg 68%
    01:00 +9°C° 0 mm 3 mps 747 mmHg 71%
    02:00 +8°C° 0 mm 3 mps 747 mmHg 75%
    03:00 +8°C° 0 mm 3 mps 747 mmHg 70%
    04:00 +7°C° 0 mm 4 mps 748 mmHg 65%
    05:00 +7°C° 0 mm 4 mps 748 mmHg 60%
    06:00 +7°C° 0 mm 4 mps 749 mmHg 54%
    07:00 +8°C° 0 mm 4 mps 749 mmHg 48%
    08:00 +8°C° 0 mm 4 mps 750 mmHg 42%
    09:00 +10°C° 0 mm 4 mps 750 mmHg 38%
    10:00 +11°C° 0 mm 4 mps 750 mmHg 34%
    11:00 +12°C° 0 mm 4 mps 751 mmHg 31%
    12:00 +13°C° 0 mm 4 mps 751 mmHg 30%
    13:00 +13°C° 0 mm 4 mps 751 mmHg 29%
    14:00 +14°C° 0 mm 4 mps 751 mmHg 28%
    15:00 +14°C° 0 mm 4 mps 751 mmHg 30%
    16:00 +13°C° 0 mm 4 mps 751 mmHg 31%
    17:00 +13°C° 0 mm 4 mps 751 mmHg 33%
    18:00 +11°C° 0 mm 3 mps 751 mmHg 39%
    19:00 +10°C° 0 mm 3 mps 752 mmHg 45%
    20:00 +8°C° 0 mm 2 mps 752 mmHg 52%
    21:00 +7°C° 0 mm 3 mps 753 mmHg 54%
    22:00 +5°C° 0 mm 3 mps 753 mmHg 56%
    23:00 +4°C° 0 mm 3 mps 754 mmHg 58%

    1 June, Friday

    Time Temperature Precipitation Wind Pressure Humidity
    00:00 +3°C° 0 mm 3 mps 754 mmHg 61%
    01:00 +3°C° 0 mm 2 mps 754 mmHg 64%
    02:00 +2°C° 0 mm 2 mps 755 mmHg 67%
    03:00 +3°C° 0 mm 2 mps 755 mmHg 65%
    04:00 +3°C° 0 mm 2 mps 755 mmHg 63%
    05:00 +4°C° 0 mm 2 mps 756 mmHg 61%
    06:00 +4°C° 0 mm 3 mps 756 mmHg 55%
    07:00 +7°C° 0 mm 3 mps 756 mmHg 49%
    08:00 +8°C° 0 mm 3 mps 756 mmHg 44%
    09:00 +10°C° 0 mm 3 mps 756 mmHg 41%
    10:00 +11°C° 0 mm 3 mps 756 mmHg 38%
    11:00 +12°C° 0 mm 3 mps 756 mmHg 34%
    12:00 +13°C° 0 mm 3 mps 756 mmHg 33%
    13:00 +14°C° 0 mm 3 mps 756 mmHg 31%
    14:00 +15°C° 0 mm 2 mps 755 mmHg 30%
    15:00 +15°C° 0 mm 2 mps 755 mmHg 31%
    16:00 +15°C° 0 mm 2 mps 755 mmHg 31%
    17:00 +15°C° 0 mm 2 mps 755 mmHg 32%
    18:00 +13°C° 0 mm 1 mps 755 mmHg 40%
    19:00 +12°C° 0 mm 1 mps 755 mmHg 48%
    20:00 +10°C° 0 mm 1 mps 755 mmHg 56%
    21:00 +9°C° 0 mm 1 mps 756 mmHg 58%
    22:00 +8°C° 0 mm 1 mps 756 mmHg 60%
    23:00 +7°C° 0 mm 1 mps 756 mmHg 61%

    2 June, Saturday

    Time Temperature Precipitation Wind Pressure Humidity
    00:00 +6°C° 0 mm 1 mps 756 mmHg 63%
    01:00 +6°C° 0 mm 1 mps 756 mmHg 65%
    02:00 +4°C° 0 mm 0 mps 756 mmHg 67%
    03:00 +6°C° 0 mm 1 mps 756 mmHg 65%
    04:00 +7°C° 0 mm 1 mps 757 mmHg 62%
    05:00 +8°C° 0 mm 1 mps 757 mmHg 60%
    06:00 +11°C° 0 mm 1 mps 757 mmHg 53%
    07:00 +13°C° 0 mm 1 mps 757 mmHg 47%
    08:00 +15°C° 0 mm 1 mps 757 mmHg 40%
    09:00 +16°C° 0 mm 1 mps 756 mmHg 37%
    10:00 +18°C° 0 mm 2 mps 756 mmHg 33%
    11:00 +19°C° 0 mm 2 mps 756 mmHg 30%
    12:00 +20°C° 0 mm 2 mps 755 mmHg 30%
    13:00 +20°C° 0 mm 2 mps 754 mmHg 29%
    14:00 +21°C° 0 mm 2 mps 754 mmHg 29%
    15:00 +20°C° 0 mm 3 mps 753 mmHg 31%
    16:00 +20°C° 0 mm 3 mps 753 mmHg 34%
    17:00 +20°C° 0 mm 3 mps 753 mmHg 36%
    18:00 +18°C° 0 mm 2 mps 752 mmHg 45%
    19:00 +16°C° 0 mm 2 mps 752 mmHg 53%
    20:00 +14°C° 0 mm 2 mps 752 mmHg 62%
    21:00 +13°C° 0 mm 2 mps 752 mmHg 64%
    22:00 +12°C° 0 mm 2 mps 752 mmHg 65%
    23:00 +12°C° 0 mm 2 mps 752 mmHg 67%
    Show more